When you browse on this site, cookies collect data to enhance your experience and personalize the content and advertising you see.
Visit our Privacy Policy to learn more. By continuing to use the site, you agree to this use of cookies and data.
  • In Austria
  • List of Countries
  • For 7 days
  • Water Temperature
  • Satellite Maps
  • Weather Map
  • News
  • Weather Widgets
  • user-avatar
    Login

    Hourly Weather Kalat

    Today, 27 June, Thursday

    Time Temperature Precipitation Wind Pressure Humidity
    00:00 +4°C° 0 mm 1 mps 475 mmHg 77%
    01:00 +4°C° 0 mm 1 mps 475 mmHg 78%
    02:00 +2°C° 0 mm 2 mps 474 mmHg 79%
    03:00 +2°C° 0 mm 2 mps 474 mmHg 80%
    04:00 +3°C° 0 mm 1 mps 474 mmHg 81%
    05:00 +2°C° 0 mm 1 mps 474 mmHg 82%
    06:00 +2°C° 0 mm 2 mps 474 mmHg 76%
    07:00 +3°C° 0 mm 2 mps 475 mmHg 70%
    08:00 +4°C° 0 mm 2 mps 475 mmHg 65%
    09:00 +5°C° 0 mm 2 mps 476 mmHg 58%
    10:00 +6°C° 0 mm 2 mps 477 mmHg 52%
    11:00 +7°C° 0 mm 2 mps 477 mmHg 46%
    12:00 +7°C° 0 mm 2 mps 477 mmHg 45%
    13:00 +8°C° 0 mm 2 mps 478 mmHg 44%
    14:00 +9°C° 0 mm 2 mps 478 mmHg 43%
    15:00 +8°C° 0.1 mm 2 mps 477 mmHg 46%
    16:00 +8°C° 0.1 mm 2 mps 477 mmHg 49%
    17:00 +7°C° 0.1 mm 2 mps 476 mmHg 52%
    18:00 +7°C° 0.2 mm 2 mps 476 mmHg 55%
    19:00 +6°C° 0.2 mm 2 mps 476 mmHg 58%
    20:00 +6°C° 0.2 mm 2 mps 475 mmHg 61%
    21:00 +5°C° 0 mm 2 mps 475 mmHg 62%
    22:00 +5°C° 0 mm 2 mps 475 mmHg 63%
    23:00 +4°C° 0 mm 2 mps 475 mmHg 64%

    Tomorrow, 28 June, Friday

    Time Temperature Precipitation Wind Pressure Humidity
    00:00 +5°C° 0 mm 1 mps 475 mmHg 66%
    01:00 +5°C° 0 mm 1 mps 474 mmHg 67%
    02:00 +4°C° 0 mm 1 mps 474 mmHg 68%
    03:00 +4°C° 0 mm 1 mps 474 mmHg 69%
    04:00 +4°C° 0 mm 1 mps 474 mmHg 70%
    05:00 +3°C° 0 mm 1 mps 473 mmHg 71%
    06:00 +4°C° 0 mm 1 mps 474 mmHg 65%
    07:00 +5°C° 0 mm 1 mps 475 mmHg 60%
    08:00 +6°C° 0 mm 1 mps 475 mmHg 54%
    09:00 +7°C° 0 mm 1 mps 476 mmHg 50%
    10:00 +8°C° 0 mm 1 mps 477 mmHg 45%
    11:00 +9°C° 0 mm 1 mps 477 mmHg 40%
    12:00 +10°C° 0 mm 1 mps 478 mmHg 38%
    13:00 +10°C° 0 mm 1 mps 478 mmHg 36%
    14:00 +11°C° 0 mm 1 mps 478 mmHg 34%
    15:00 +10°C° 0 mm 2 mps 478 mmHg 36%
    16:00 +10°C° 0 mm 2 mps 478 mmHg 37%
    17:00 +10°C° 0 mm 2 mps 478 mmHg 39%
    18:00 +9°C° 0.1 mm 2 mps 477 mmHg 44%
    19:00 +8°C° 0.1 mm 2 mps 477 mmHg 48%
    20:00 +7°C° 0.1 mm 2 mps 476 mmHg 53%
    21:00 +7°C° 0 mm 2 mps 476 mmHg 55%
    22:00 +7°C° 0 mm 2 mps 476 mmHg 57%
    23:00 +7°C° 0 mm 1 mps 476 mmHg 60%

    Day after tomorrow, 29 June, Saturday

    Time Temperature Precipitation Wind Pressure Humidity
    00:00 +7°C° 0 mm 1 mps 476 mmHg 62%
    01:00 +7°C° 0 mm 1 mps 476 mmHg 63%
    02:00 +6°C° 0 mm 1 mps 475 mmHg 65%
    03:00 +6°C° 0 mm 1 mps 475 mmHg 66%
    04:00 +6°C° 0 mm 1 mps 475 mmHg 67%
    05:00 +6°C° 0 mm 1 mps 475 mmHg 68%
    06:00 +5°C° 0 mm 0 mps 475 mmHg 63%
    07:00 +6°C° 0 mm 0 mps 476 mmHg 58%
    08:00 +7°C° 0 mm 0 mps 476 mmHg 53%
    09:00 +9°C° 0.2 mm 1 mps 477 mmHg 50%
    10:00 +10°C° 0.2 mm 1 mps 477 mmHg 47%
    11:00 +11°C° 0.2 mm 1 mps 478 mmHg 44%
    12:00 +11°C° 0.6 mm 1 mps 478 mmHg 43%
    13:00 +12°C° 0.6 mm 2 mps 478 mmHg 42%
    14:00 +12°C° 0.6 mm 2 mps 479 mmHg 41%
    15:00 +12°C° 0.5 mm 2 mps 479 mmHg 43%
    16:00 +12°C° 0.5 mm 2 mps 479 mmHg 45%
    17:00 +11°C° 0.5 mm 3 mps 479 mmHg 46%
    18:00 +10°C° 0.6 mm 2 mps 478 mmHg 53%
    19:00 +10°C° 0.6 mm 1 mps 478 mmHg 60%
    20:00 +9°C° 0.6 mm 1 mps 477 mmHg 66%
    21:00 +9°C° 0.2 mm 1 mps 477 mmHg 66%
    22:00 +8°C° 0.2 mm 1 mps 477 mmHg 67%
    23:00 +7°C° 0.2 mm 0 mps 477 mmHg 67%

    30 June, Sunday

    Time Temperature Precipitation Wind Pressure Humidity
    00:00 +7°C° 0 mm 0 mps 477 mmHg 68%
    01:00 +6°C° 0 mm 0 mps 476 mmHg 69%
    02:00 +6°C° 0 mm 0 mps 476 mmHg 70%
    03:00 +6°C° 0 mm 0 mps 475 mmHg 70%
    04:00 +5°C° 0 mm 0 mps 475 mmHg 70%
    05:00 +5°C° 0 mm 0 mps 475 mmHg 70%
    06:00 +6°C° 0 mm 0 mps 476 mmHg 62%
    07:00 +8°C° 0 mm 1 mps 476 mmHg 53%
    08:00 +10°C° 0 mm 1 mps 477 mmHg 44%
    09:00 +11°C° 0 mm 1 mps 478 mmHg 38%
    10:00 +12°C° 0 mm 1 mps 479 mmHg 33%
    11:00 +13°C° 0 mm 1 mps 479 mmHg 28%
    12:00 +14°C° 0 mm 2 mps 480 mmHg 27%
    13:00 +14°C° 0 mm 2 mps 480 mmHg 26%
    14:00 +14°C° 0 mm 3 mps 480 mmHg 25%
    15:00 +14°C° 0 mm 3 mps 480 mmHg 25%
    16:00 +14°C° 0 mm 3 mps 480 mmHg 26%
    17:00 +14°C° 0 mm 3 mps 480 mmHg 26%
    18:00 +13°C° 0 mm 3 mps 480 mmHg 31%
    19:00 +12°C° 0 mm 3 mps 479 mmHg 36%
    20:00 +11°C° 0 mm 3 mps 479 mmHg 41%
    21:00 +10°C° 0 mm 2 mps 479 mmHg 47%
    22:00 +9°C° 0 mm 2 mps 478 mmHg 53%
    23:00 +10°C° 0 mm 1 mps 478 mmHg 58%

    1 July, Monday

    Time Temperature Precipitation Wind Pressure Humidity
    00:00 +9°C° 0 mm 1 mps 477 mmHg 61%
    01:00 +8°C° 0 mm 1 mps 477 mmHg 64%
    02:00 +8°C° 0 mm 1 mps 476 mmHg 66%
    03:00 +7°C° 0 mm 1 mps 476 mmHg 69%
    04:00 +7°C° 0 mm 1 mps 476 mmHg 71%
    05:00 +6°C° 0 mm 1 mps 475 mmHg 73%
    06:00 +7°C° 0 mm 1 mps 476 mmHg 66%
    07:00 +8°C° 0 mm 1 mps 477 mmHg 60%
    08:00 +9°C° 0 mm 1 mps 478 mmHg 53%
    09:00 +10°C° 0 mm 1 mps 478 mmHg 47%
    10:00 +10°C° 0 mm 2 mps 479 mmHg 42%
    11:00 +12°C° 0 mm 2 mps 480 mmHg 36%
    12:00 +13°C° 0.1 mm 2 mps 480 mmHg 35%
    13:00 +13°C° 0.1 mm 3 mps 480 mmHg 34%
    14:00 +13°C° 0.1 mm 3 mps 480 mmHg 33%
    15:00 +13°C° 0.1 mm 3 mps 480 mmHg 36%
    16:00 +13°C° 0.1 mm 3 mps 480 mmHg 38%
    17:00 +13°C° 0.1 mm 3 mps 479 mmHg 41%
    18:00 +12°C° 0.1 mm 3 mps 479 mmHg 44%
    19:00 +11°C° 0.1 mm 3 mps 479 mmHg 47%
    20:00 +10°C° 0.1 mm 2 mps 479 mmHg 50%
    21:00 +10°C° 0 mm 2 mps 479 mmHg 52%
    22:00 +9°C° 0 mm 2 mps 478 mmHg 54%
    23:00 +9°C° 0 mm 2 mps 478 mmHg 56%

    2 July, Tuesday

    Time Temperature Precipitation Wind Pressure Humidity
    00:00 +9°C° 0 mm 1 mps 478 mmHg 58%
    01:00 +9°C° 0 mm 1 mps 477 mmHg 60%
    02:00 +8°C° 0 mm 1 mps 477 mmHg 62%
    03:00 +8°C° 0 mm 1 mps 477 mmHg 63%
    04:00 +7°C° 0 mm 1 mps 476 mmHg 64%
    05:00 +7°C° 0 mm 1 mps 476 mmHg 65%
    06:00 +8°C° 0 mm 1 mps 477 mmHg 57%
    07:00 +9°C° 0 mm 1 mps 478 mmHg 49%
    08:00 +10°C° 0 mm 1 mps 479 mmHg 41%
    09:00 +11°C° 0 mm 1 mps 480 mmHg 36%
    10:00 +13°C° 0 mm 1 mps 480 mmHg 31%
    11:00 +14°C° 0 mm 1 mps 481 mmHg 26%
    12:00 +15°C° 0 mm 1 mps 482 mmHg 25%
    13:00 +16°C° 0 mm 2 mps 482 mmHg 24%
    14:00 +17°C° 0 mm 2 mps 483 mmHg 23%
    15:00 +17°C° 0 mm 3 mps 482 mmHg 25%
    16:00 +17°C° 0 mm 3 mps 482 mmHg 27%
    17:00 +17°C° 0 mm 4 mps 482 mmHg 30%
    18:00 +15°C° 0 mm 4 mps 482 mmHg 34%
    19:00 +14°C° 0 mm 3 mps 481 mmHg 38%
    20:00 +13°C° 0 mm 3 mps 481 mmHg 43%
    21:00 +13°C° 0 mm 3 mps 481 mmHg 46%
    22:00 +12°C° 0 mm 3 mps 480 mmHg 50%
    23:00 +12°C° 0 mm 2 mps 480 mmHg 53%
    Show more